This is the latest recevied weather packets stored in our database for station/object KV9E. If no packets are shown the sender has not sent any weather packets the latest 10 day(s).
| Time | Temp. | Humidity | Pressure | Rain* | Wind** | Luminosity | Snow |
|---|---|---|---|---|---|---|---|
| 1778371824 | 18.33° C | 71% | 1011.2 hPa | 0 mm | - | 18 W/m² | - |
| 1778371519 | 18.33° C | 71% | 1011.1 hPa | 0 mm | - | 22 W/m² | - |
| 1778371216 | 18.89° C | 70% | 1011.2 hPa | 0 mm | - | 26 W/m² | - |
| 1778370913 | 18.89° C | 69% | 1011.1 hPa | 0 mm | - | 28 W/m² | - |
| 1778370609 | 19.44° C | 68% | 1011 hPa | 0 mm | - | 36 W/m² | - |
| 1778370306 | 19.44° C | 67% | 1010.9 hPa | 0 mm | - | 42 W/m² | - |
| 1778370004 | 19.44° C | 66% | 1010.9 hPa | 0 mm | - | 45 W/m² | - |
| 1778369701 | 19.44° C | 67% | 1011.2 hPa | 0 mm | - | 47 W/m² | - |
| 1778369397 | 20° C | 66% | 1010.9 hPa | 0 mm | - | 59 W/m² | - |
| 1778369095 | 20° C | 65% | 1010.9 hPa | 0 mm | - | 65 W/m² | - |
| 1778368790 | 20° C | 64% | 1011.1 hPa | 0 mm | - | 68 W/m² | - |
| 1778368487 | 20.56° C | 65% | 1011.2 hPa | 0 mm | - | 70 W/m² | - |
| 1778368185 | 21.11° C | 62% | 1011 hPa | 0 mm | - | 64 W/m² | - |
| 1778367882 | 21.11° C | 63% | 1010.7 hPa | 0 mm | - | 141 W/m² | - |
| 1778367578 | 21.11° C | 65% | 1010.9 hPa | 0 mm | - | 151 W/m² | - |
| 1778367275 | 20.56° C | 65% | 1011 hPa | 0 mm | - | 167 W/m² | - |
| 1778366971 | 20.56° C | 68% | 1011.2 hPa | 0 mm | - | 126 W/m² | - |
| 1778366666 | 20° C | 67% | 1010.8 hPa | 0 mm | - | 171 W/m² | - |
| 1778366363 | 20° C | 66% | 1011 hPa | 0 mm | - | 52 W/m² | - |
| 1778366060 | 20.56° C | 64% | 1011 hPa | 0 mm | - | 91 W/m² | - |
| 1778365758 | 20° C | 66% | 1011 hPa | 0 mm | - | 200 W/m² | - |
| 1778365452 | 20.56° C | 67% | 1011 hPa | 0 mm | - | 47 W/m² | - |
| 1778365148 | 21.67° C | 62% | 1010.7 hPa | 0 mm | - | 77 W/m² | - |
| 1778364845 | 21.67° C | 61% | 1010.8 hPa | 0 mm | - | 266 W/m² | - |
| 1778364541 | 20° C | 68% | 1010.8 hPa | 0 mm | - | 283 W/m² | - |
* Rain latest hour (hover to see other rain measurements)
** Current wind speed in m/s (hover to see current wind gust speed)